Regional Weather Roundup
Issued by NWS

Home | Current Version | Previous Version | Text Only | Print | Product List | Glossary Off
Versions: 1 2 3 4 5 6 7 8 9 10 11 12 13 14 15 16 17 18 19 20 21 22 23 24 25 26 27 28 29 30 31 32 33 34 35 36 37 38 39 40 41 42 43 44 45 46 47 48 49 50

000
ASUS43 KMPX 260510
RWRMN
WEATHER ROUNDUP FOR MINNESOTA
NATIONAL WEATHER SERVICE TWIN CITIES/CHANHASSEN MN
1200 AM CDT FRI MAY 26 2017


NOTE: "FAIR" INDICATES FEW OR NO CLOUDS BELOW 12,000 FEET WITH NO
SIGNIFICANT WEATHER AND/OR OBSTRUCTIONS TO VISIBILITY. N/A MEANS
CURRENT SKY AND/OR WEATHER CONDITIONS ARE NOT AVAILABLE.

MNZ060>063-068>070-260600-
   Twin Cities Metro

CITY           SKY/WX    TMP DP  RH WIND       PRES   REMARKS
TWIN CITIES    CLOUDY    63  54  72 SE6       29.71S
ST PAUL        CLOUDY    61  57  87 CALM      29.72R
CRYSTAL        CLOUDY    60  54  80 SE7       29.69S
BLAINE         CLOUDY    63  57  82 SE3       29.71R
LAKEVILLE      CLOUDY    61  54  77 SE3       29.71R
EDEN PRAIRIE   CLOUDY    62  54  74 SE6       29.69R
SOUTH ST PAUL  MOCLDY    62  55  76 S5        29.72R
LAKE ELMO      LGT RAIN  61  55  82 S3        29.72S
$$
MNZ001>005-007-008-013>017-022>024-027-028-260600-
   Northwest Minnesota

CITY           SKY/WX    TMP DP  RH WIND       PRES   REMARKS
BEMIDJI        CLOUDY    58  50  73 SE9G16    29.64S
HALLOCK        CLOUDY    61  48  63 S16       29.53R
ROSEAU         PTCLDY    63  52  67 SE14      29.58S
WARROAD        CLOUDY    61  52  72 SE13G20   29.60F
THIEF RVR FALL CLEAR     59  49  69 SE10      29.59R
CROOKSTON      CLEAR     61  50  67 S14       29.57R
FOSSTON        PTCLDY    57  48  72 SE13      29.60S
DETROIT LAKES  CLOUDY    57  50  77 S8        29.63S
MOORHEAD       PTCLDY    61  52  72 S12       29.59R
PARK RAPIDS    LGT RAIN  61  49  64 S14       29.64S
MAHNOMEN       FAIR      59  50  71 S10G17    29.59F
$$
MNZ006-009>011-018-025>026-260600-
   North Central Minnesota

CITY           SKY/WX    TMP DP  RH WIND       PRES   REMARKS
BAUDETTE       CLOUDY    61  49  64 SE10      29.63R
FLAG ISLAND    DRIZZLE   57  50  77 S13       29.60S
INTL FALLS     LGT RAIN  61  47  59 S9        29.67R
WASKISH        CLOUDY    61  52  72 S9        29.65R
BIG FORK       CLOUDY    59  46  63 SE9       29.68S
LONGVILLE      CLOUDY    55  52  88 SE5       29.68S
GRAND RAPIDS   LGT RAIN  52  50  93 SE5       29.73R
CRANE LAKE     CLOUDY    57  45  62 SE5       29.72S
ORR            CLOUDY    55  45  67 S5        29.68S
COOK           CLOUDY    55  45  67 SE6       29.72R
WALKER         CLOUDY    59  49  70 SE10G16   29.65S
$$
MNZ012-019>021-037-260600-
   Northeast Minnesota

CITY           SKY/WX    TMP DP  RH WIND       PRES   REMARKS
DULUTH         CLOUDY    53  44  71 E5        29.73R
ELY            MOCLDY    54  43  66 SE3       29.73S
HIBBING        LGT RAIN  50  47  89 SE5       29.72R
EVELETH        CLOUDY    54  41  61 CALM      29.74R
DULUTH HARBOR  CLOUDY    46  43  87 CALM      29.75R
TWO HARBORS    CLOUDY    55  46  71 NE3       29.72S
SILVER BAY     CLOUDY    54  45  71 N3        29.73S
GRAND MARAIS     N/A     53  44  71 NE8       29.75F
G MARAIS ARPRT CLEAR     50  39  66 E6        29.78S
$$
MNZ029>031-032-039>041-046>048-054>057-064-260600-
   West Central Minnesota

CITY           SKY/WX    TMP DP  RH WIND       PRES   REMARKS
FERGUS FALLS   CLOUDY    59  52  77 S10       29.60S
WHEATON        CLOUDY    54  52  94 SE9       29.63R
MORRIS         PTCLDY    55  54  94 SE6       29.62R
ALEXANDRIA     CLOUDY    60  52  74 SE12      29.65S
ELBOW LAKE     CLOUDY    58  54  87 SE5       29.63R
WADENA         CLOUDY    57  52  82 SE7       29.64S
GLENWOOD       CLOUDY    57  52  82 SE10      29.66R
APPLETON       CLEAR     57  52  82 SE5       29.62R
BENSON         CLEAR     59  52  77 S8        29.65S
ORTONVILLE     CLOUDY    55  52  88 SE3       29.62S
MADISON        CLEAR     57  57 100 S6        29.63S
WILLMAR        FAIR      57  54  88 SE7       29.67S
$$
MNZ033>034-036-042>043-049>051-058-059-260600-
   Central Minnesota

CITY           SKY/WX    TMP DP  RH WIND       PRES   REMARKS
ST CLOUD       CLOUDY    60  55  83 SE6       29.68S
SAUK CENTRE    CLOUDY    58  53  82 SE9       29.66R
PAYNESVILLE    PTCLDY    58  51  77 SE7       29.67S
AITKIN         LGT RAIN  52  48  87 CALM      29.70R
PINE RIVER     CLOUDY    57  54  88 SE9       29.71F
BRAINERD       LGT RAIN  56  54  93 SE5       29.68F
STAPLES        CLOUDY    57  52  82 SE6       29.66S
LONG PRAIRIE   CLOUDY    57  52  82 E9        29.66S
LITTLE FALLS   CLOUDY    59  52  77 E7        29.68S
LITCHFIELD     PTCLDY    61  54  77 SE6       29.68S
BUFFALO        CLOUDY    61  53  74 SE6       29.70R
MAPLE LAKE     CLOUDY    61  55  81 CALM      29.70R
HUTCHINSON     CLOUDY    61  54  77 SE6       29.69S
$$
MNZ037-044-045-052-053-260600-
   East Central Minnesota

CITY           SKY/WX    TMP DP  RH WIND       PRES   REMARKS
PRINCETON      CLOUDY    61  55  82 E3        29.70S
MORA           LGT RAIN  55  52  88 CALM      29.73S
CAMBRIDGE      DRIZZLE   61  54  77 CALM      29.69S
RUSH CITY      LGT RAIN  57  55  93 CALM      29.71F
MOOSE LAKE     CLOUDY    50  43  76 CALM      29.71S
HINCKLEY       DRIZZLE   55  52  88 NE5       29.72R
CLOQUET        CLOUDY    50  43  76 E5        29.73S
MCGREGOR       CLOUDY    50  46  87 CALM      29.73R
$$
MNZ071>073-080-081-089-090-097-098-260600-
   Southwest Minnesota

CITY           SKY/WX    TMP DP  RH WIND       PRES   REMARKS
MONTEVIDEO     CLEAR     57  54  88 S8        29.64R
CANBY          CLOUDY    57  54  88 CALM      29.64S
MARSHALL       CLEAR     57  54  89 S8        29.65S
REDWOOD FALLS  CLEAR     59  50  72 SE9       29.65S
OLIVIA         PTCLDY    57  50  77 SE7       29.65F
PIPESTONE      CLEAR     57  46  67 S3        29.67R
WINDOM         CLEAR     57  50  77 SE8       29.67S
WORTHINGTON    CLEAR     58  51  78 S7        29.68R
JACKSON        CLEAR     57  50  77 CALM      29.68R
TRACY          CLEAR     60  54  79 S8        29.65S
SLAYTON        CLEAR     56  51  83 S3        29.67S
$$
MNZ065>067-074>077-082>085-091>093-260600-
   South Central Minnesota

CITY           SKY/WX    TMP DP  RH WIND       PRES   REMARKS
MANKATO        CLOUDY    60  52  74 SE9       29.69R
NEW ULM        CLEAR     59  50  72 SE8       29.67S
ST JAMES       CLEAR     61  52  72 SE15      29.67F
FAIRMONT       CLEAR     60  51  72 SE10      29.68F
GLENCOE        CLOUDY    61  56  83 SE7       29.68S
FARIBAULT      CLOUDY    63  54  72 CALM      29.72R
OWATONNA       CLOUDY    61  54  77 SE9       29.72R
WASECA         PTCLDY    59  50  72 SE8       29.72S
ALBERT LEA     CLOUDY    61  57  88 SE5       29.72F
$$
MNZ078>079-086>088-094>096-260600-
   Southeast Minnesota

CITY           SKY/WX    TMP DP  RH WIND       PRES   REMARKS
ROCHESTER      CLOUDY    58  57  97 S5        29.76R
RED WING       CLOUDY    63  52  67 S7        29.72R
STANTON        CLOUDY    63  54  73 S5        29.71R
DODGE CENTER   CLOUDY    59  54  82 SE6       29.74R
WINONA         RAIN      59  55  88 CALM      29.74R
AUSTIN         MOCLDY    61  52  72 S5        29.73R
PRESTON        PTCLDY    59  53  79 S5        29.76R
$$
ABBREVIATIONS USED IN REMARKS
   TC - TEMPERATURES IN CELSIUS
  WCI - WIND CHILL INDEX
   HX - HEAT INDEX
  VSB - VISIBILITY
$$




USA.gov is the U.S. government's official web portal to all federal, state and local government web resources and services.